Date String (YYYY-MM-DD hh:mm:ss) UTC,Instrument flags,absolute air pressure of the measurement (hPa),sample flow rate (lpm),inlet stack bypass flow (lpm),air temperature of the measurement (°C),ambient temperature measured by the external sensor (°C),aerosol sample conditioner tube jacket temperature (°C),OPC LED temperature (°C),internal box temperature (°C),relative humidity of the measurement (%),span deviation,mass concentration of particles derived from Lorenz-Mie calculation of OPC scattering (μg/m³),mass concentration of particles derived from Lorenz-Mie calculation of OPC scattering (μg/m³),mass concentration of particles derived from Lorenz-Mie calculation of OPC scattering (μg/m³)
DateTimeUTC,F1_M11,P_M11,Q1_M11,Q2_M11,T1_M11,T2_M11,T3_M11,T4_M11,T5_M11,U1_M11,ZSPAN_M11,X0_M11,X2_M11,X1_M11
2024-02-06 17:00:00,SystemResetWarning,0825.0,5.00,000.00,018.8,018.4,000.0,027.1,020.5,17.0,0000.0,0005.14,0002.05,0001.65
2024-02-06 17:01:00,SystemResetWarning,0825.0,5.01,000.00,018.9,018.4,000.0,027.1,020.5,17.1,0000.0,0005.17,0002.09,0001.70
2024-02-06 17:02:00,SystemResetWarning,0824.9,5.01,000.00,018.9,018.4,000.0,027.1,020.5,16.9,0000.0,0004.62,0002.13,0001.74
2024-02-06 17:03:00,SystemResetWarning,0824.9,5.00,000.00,018.9,018.5,000.0,027.1,020.5,17.0,0000.0,0003.52,0002.13,0001.74
2024-02-06 17:04:00,SystemResetWarning,0824.9,4.99,000.00,018.9,018.5,000.0,027.1,020.6,17.1,0000.0,0003.09,0002.04,0001.70
2024-02-06 17:05:00,SystemResetWarning,0824.9,5.00,000.00,018.9,018.5,000.0,027.1,020.5,16.4,0000.0,0003.03,0001.99,0001.64
2024-02-06 17:06:00,SystemResetWarning,0824.9,5.02,000.00,018.9,018.5,000.0,027.1,020.6,16.2,0000.0,0002.90,0001.92,0001.59
2024-02-06 17:07:00,SystemResetWarning,0825.0,4.98,000.00,018.9,018.5,000.0,027.1,020.6,16.1,0000.0,0002.77,0001.82,0001.52
2024-02-06 17:08:00,SystemResetWarning,0825.0,5.00,000.00,018.9,018.5,000.0,027.1,020.6,16.6,0000.0,0002.89,0001.70,0001.41
2024-02-06 17:09:00,SystemResetWarning,0824.9,5.00,000.00,019.0,018.5,000.0,027.2,020.6,17.0,0000.0,0002.57,0001.51,0001.28
2024-02-06 17:10:00,SystemResetWarning,0824.9,5.01,000.00,019.0,018.6,000.0,027.2,020.6,16.3,0000.0,0002.34,0001.36,0001.17
2024-02-06 17:11:00,SystemResetWarning,0824.9,5.00,000.00,019.0,018.6,000.0,027.2,020.6,15.8,0000.0,0002.19,0001.26,0001.08
2024-02-06 17:12:00,SystemResetWarning,0824.9,5.00,000.00,019.0,018.6,000.0,027.2,020.6,15.9,0000.0,0002.24,0001.23,0001.03
2024-02-06 17:13:00,SystemResetWarning,0824.9,4.99,000.00,019.0,018.6,000.0,027.2,020.6,15.9,0000.0,0002.25,0001.19,0001.00
2024-02-06 17:14:00,SystemResetWarning,0824.9,5.00,000.00,019.0,018.6,000.0,027.2,020.6,16.2,0000.0,0002.25,0001.16,0000.97
2024-02-06 17:15:00,SystemResetWarning,0824.9,5.01,000.00,019.0,018.6,000.0,027.2,020.6,16.2,0000.0,0002.14,0001.11,0000.94
2024-02-06 17:16:00,SystemResetWarning,0824.9,5.01,000.00,019.0,018.6,000.0,027.2,020.7,16.4,0000.0,0002.00,0001.07,0000.92
2024-02-06 17:17:00,SystemResetWarning,0824.9,5.00,000.00,019.1,018.6,000.0,027.2,020.7,16.3,0000.0,0001.89,0001.05,0000.91
2024-02-06 17:18:00,SystemResetWarning,0824.9,5.00,000.00,019.1,018.6,000.0,027.2,020.7,16.3,0000.0,0001.85,0001.04,0000.91
2024-02-06 17:19:00,SystemResetWarning,0824.9,5.00,000.00,019.1,018.6,000.0,027.2,020.7,16.2,0000.0,0001.48,0001.01,0000.90
2024-02-06 17:20:00,SystemResetWarning,0824.9,5.00,000.00,019.1,018.6,000.0,027.3,020.7,16.7,0000.0,0001.45,0001.01,0000.91
2024-02-06 17:21:00,SystemResetWarning,0824.9,4.99,000.00,019.1,018.7,000.0,027.3,020.7,17.1,0000.0,0001.55,0001.06,0000.93
2024-02-06 17:22:00,SystemResetWarning,0824.9,4.99,000.00,019.1,018.7,000.0,027.3,020.7,17.3,0000.0,0001.66,0001.10,0000.95
2024-02-06 17:23:00,SystemResetWarning,0824.9,5.01,000.00,019.1,018.7,000.0,027.3,020.7,17.3,0000.0,0001.71,0001.11,0000.95
2024-02-06 17:24:00,SystemResetWarning,0825.0,5.01,000.00,019.1,018.7,000.0,027.3,020.7,16.9,0000.0,0001.70,0001.12,0000.95
2024-02-06 17:25:00,SystemResetWarning,0825.1,5.01,000.00,019.1,018.7,000.0,027.3,020.7,17.2,0000.0,0001.77,0001.15,0000.97
2024-02-06 17:26:00,SystemResetWarning,0825.0,4.99,000.00,019.1,018.7,000.0,027.3,020.8,17.4,0000.0,0002.08,0001.21,0001.00
2024-02-06 17:27:00,SystemResetWarning,0825.0,4.99,000.00,019.1,018.7,000.0,027.3,020.8,17.6,0000.0,0002.52,0001.26,0001.03
2024-02-06 17:28:00,SystemResetWarning,0825.0,5.01,000.00,019.2,018.7,000.0,027.3,020.8,17.7,0000.0,0002.59,0001.29,0001.05
2024-02-06 17:29:00,SystemResetWarning,0825.0,5.01,000.00,019.2,018.7,000.0,027.3,020.8,18.0,0000.0,0002.73,0001.36,0001.09
2024-02-06 17:30:00,SystemResetWarning,0824.9,5.01,000.00,019.2,018.8,000.0,027.3,020.8,18.2,0000.0,0003.49,0001.49,0001.15
2024-02-06 17:31:00,SystemResetWarning,0824.9,5.00,000.00,019.2,018.8,000.0,027.4,020.8,17.2,0000.0,0004.16,0001.58,0001.22
2024-02-06 17:32:00,SystemResetWarning,0824.9,4.99,000.00,019.2,018.8,000.0,027.4,020.8,16.2,0000.0,0004.27,0001.67,0001.30
2024-02-06 17:33:00,SystemResetWarning,0824.9,5.00,000.00,019.2,018.8,000.0,027.4,020.8,15.9,0000.0,0004.42,0001.78,0001.37
2024-02-06 17:34:00,SystemResetWarning,0824.9,5.02,000.00,019.2,018.8,000.0,027.4,020.8,16.0,0000.0,0004.48,0001.89,0001.48
2024-02-06 17:35:00,SystemResetWarning,0824.9,5.00,000.00,019.2,018.8,000.0,027.4,020.8,17.6,0000.0,0004.61,0001.92,0001.52
2024-02-06 17:36:00,SystemResetWarning,0824.9,5.00,000.00,019.2,018.8,000.0,027.4,020.9,16.7,0000.0,0004.51,0001.92,0001.52
2024-02-06 17:37:00,SystemResetWarning,0824.8,5.00,000.00,019.2,018.8,000.0,027.4,020.8,17.2,0000.0,0004.59,0001.95,0001.51
2024-02-06 17:38:00,SystemResetWarning,0824.8,5.00,000.00,019.2,018.8,000.0,027.4,020.9,17.7,0000.0,0004.25,0001.93,0001.50
2024-02-06 17:39:00,SystemResetWarning,0824.8,5.00,000.00,019.3,018.8,000.0,027.4,020.9,18.6,0000.0,0004.20,0002.02,0001.56
2024-02-06 17:40:00,SystemResetWarning,0824.9,5.00,000.00,019.3,018.8,000.0,027.5,020.9,20.1,0000.0,0004.26,0002.06,0001.60
2024-02-06 17:41:00,SystemResetWarning,0824.9,5.00,000.00,019.3,018.8,000.0,027.5,020.9,19.8,0000.0,0004.28,0002.04,0001.59
2024-02-06 17:42:00,SystemResetWarning,0824.8,5.00,000.00,019.3,018.8,000.0,027.5,020.9,19.7,0000.0,0003.36,0002.02,0001.57
2024-02-06 17:43:00,SystemResetWarning,0824.8,5.00,000.00,019.3,018.8,000.0,027.5,020.9,19.4,0000.0,0003.25,0001.98,0001.53
2024-02-06 17:44:00,SystemResetWarning,0824.7,5.00,000.00,019.3,018.9,000.0,027.5,021.0,20.0,0000.0,0003.21,0001.96,0001.51
2024-02-06 17:45:00,SystemResetWarning,0824.7,4.99,000.00,019.3,018.9,000.0,027.5,021.0,20.3,0000.0,0003.20,0001.95,0001.52
2024-02-06 17:46:00,SystemResetWarning,0824.8,5.00,000.00,019.3,018.9,000.0,027.5,021.0,19.2,0000.0,0003.13,0001.96,0001.52
2024-02-06 17:47:00,SystemResetWarning,0824.8,5.01,000.00,019.3,018.9,000.0,027.5,021.0,18.6,0000.0,0003.39,0002.03,0001.57
2024-02-06 17:48:00,SystemResetWarning,0824.7,5.01,000.00,019.3,018.9,000.0,027.5,021.0,18.5,0000.0,0003.42,0002.08,0001.65
2024-02-06 17:49:00,SystemResetWarning,0824.7,5.00,000.00,019.3,018.9,000.0,027.5,021.0,18.2,0000.0,0003.48,0002.10,0001.69
2024-02-06 17:50:00,SystemResetWarning,0824.7,5.00,000.00,019.4,018.9,000.0,027.5,021.0,18.1,0000.0,0003.58,0002.04,0001.64
2024-02-06 17:51:00,SystemResetWarning,0824.8,5.00,000.00,019.4,019.0,000.0,027.6,021.0,18.1,0000.0,0003.49,0002.00,0001.59
2024-02-06 17:52:00,SystemResetWarning,0824.7,5.00,000.00,019.4,019.0,000.0,027.6,021.0,17.4,0000.0,0004.45,0002.03,0001.57
2024-02-06 17:53:00,SystemResetWarning,0824.7,5.00,000.00,019.4,019.0,000.0,027.6,021.0,16.9,0000.0,0006.27,0001.94,0001.53
2024-02-06 17:54:00,SystemResetWarning,0824.8,5.00,000.00,019.4,019.0,000.0,027.6,021.0,17.2,0000.0,0006.74,0001.92,0001.50
2024-02-06 17:55:00,SystemResetWarning,0824.7,5.00,000.00,019.4,019.0,000.0,027.6,021.1,17.4,0000.0,0006.75,0001.85,0001.42
2024-02-06 17:56:00,SystemResetWarning,0824.7,5.00,000.00,019.4,019.0,000.0,027.6,021.1,17.3,0000.0,0006.55,0001.71,0001.30
2024-02-06 17:57:00,SystemResetWarning,0824.6,5.01,000.00,019.5,019.0,000.0,027.6,021.1,17.0,0000.0,0006.41,0001.58,0001.19
2024-02-06 17:58:00,SystemResetWarning,0824.7,5.01,000.00,019.5,019.1,000.0,027.6,021.1,16.6,0000.0,0006.89,0001.51,0001.11
2024-02-06 17:59:00,SystemResetWarning,0824.7,5.00,000.00,019.5,019.1,000.0,027.7,021.1,17.1,0000.0,0006.67,0001.43,0001.01
